Weather Roundup
Issued by NWS

Home | Current Version | Previous Version | Text Only | Print | Product List | Glossary On
Versions: 1 2 3 4 5 6 7 8 9 10 11 12 13 14 15 16 17 18 19 20 21 22 23 24 25 26 27 28 29 30 31 32 33 34 35 36 37 38 39 40 41 42 43 44 45 46 47 48 49 50
000
NZUS93 KARX 261259
HRRWXR

CURRENT HOURLY OBSERVATIONS ACROSS
MUCH OF THE UPPER MISSISSIPPI VALLEY
NATIONAL WEATHER SERVICE LA CROSSE WI
800 AM CDT TUE MAY 26 2015


...SOUTHEAST MINNESOTA...


CITY           SKY/WX    TMP DP  RH WIND       PRES   REMARKS
ROCHESTER      CLOUDY    61  56  83 S7        29.82F
ROCHESTER/MAYO FAIR      62  56  81 S7        29.81F
WINONA         NOT AVBL
AUSTIN         CLOUDY    61  57  88 S7        29.81S
ALBERT LEA     CLOUDY    63  55  77 SW7       29.79F
DODGE CENTER   CLOUDY    63  57  82 CALM      29.80F
PRESTON        CLOUDY    59  56  89 SW6       29.82F
OWATONNA       CLOUDY    61  57  88 N3        29.80F FOG
FARIBAULT      CLOUDY    59  57  94 CALM      29.81F FOG
$$

...ELSEWHERE IN MINNESOTA...


CITY           SKY/WX    TMP DP  RH WIND       PRES   REMARKS
MINNEAPOLIS    CLOUDY    57  56  96 NW6       29.82R FOG
INTNL FALLS    MOSUNNY   54  52  93 CALM      29.87S
DULUTH         CLOUDY    54  51  90 NE8       29.85F
RED WING       CLOUDY    61  59  94 CALM      29.80F FOG
REDWOOD FALLS  CLOUDY    57  54  89 N6        29.82R
MANKATO        CLOUDY    57  55  94 NW5       29.82S
WORTHINGTON    CLOUDY    55  52  88 NE10      29.83F
FAIRMONT       CLOUDY    57  52  82 N7        29.81S
$$

...SOUTHWEST WISCONSIN...


CITY           SKY/WX    TMP DP  RH WIND       PRES   REMARKS
LA CROSSE      CLOUDY    64  60  87 E3        29.80F
PRAIRIE DU CHI CLOUDY    64  60  86 E6        29.79F
BOSCOBEL       CLOUDY    65  61  87 NE3       29.81F
LONE ROCK      NOT AVBL
PLATTEVILLE    CLOUDY    67  66  96 SE7       29.84S
FORT MC COY    CLOUDY    61  60  94 CALM      29.83F
VIROQUA        FAIR      63  60  90 SE9       29.81F
WIS DELLS      CLOUDY    67  60  80 S7        29.84F
$$

...ELSEWHERE IN WISCONSIN...


CITY           SKY/WX    TMP DP  RH WIND       PRES   REMARKS
MILWAUKEE      PTSUNNY   70  65  84 S15       29.91S
MADISON        CLOUDY    69  65  86 S13       29.86F
GREEN BAY      PTSUNNY   71  65  81 SW10      29.87R
EAU CLAIRE     NOT AVBL
BLACK RVR FLS  FAIR      61  61 100 CALM      29.82F
MEDFORD        PTSUNNY   62  61  95 CALM      29.86S
WAUSAU         MOSUNNY   66  63  90 S3        29.84F
WIS RAPIDS     CLOUDY    66  62  87 CALM      29.86S
MARSHFIELD     PTSUNNY   64  61  90 S5        29.84F
RICE LAKE      CLOUDY    58  57  96 CALM      29.84S FOG
$$

...NORTHEAST IOWA...


CITY           SKY/WX    TMP DP  RH WIND       PRES   REMARKS
DECORAH        CLOUDY    61  61 100 NW5       29.79F
MASON CITY     LGT RAIN  61  58  90 W12       29.81F
CHARLES CITY   LGT RAIN  61  61 100 W6        29.82F
OELWEIN        RAIN      63  61  94 S28G33    29.86R
$$

...ELSEWHERE IN IOWA...


CITY           SKY/WX    TMP DP  RH WIND       PRES   REMARKS
DES MOINES     RAIN      62  59  90 N6        29.77S FOG
IOWA CITY      LGT RAIN  67  65  93 SE7       29.78F
FORT DODGE     CLOUDY    59  55  88 CALM      29.79F
$$

...NORTHERN ILLINOIS...


CITY           SKY/WX    TMP DP  RH WIND       PRES   REMARKS
CHICAGO-OHARE  CLOUDY    68  64  87 S12       29.93F
CHICAGO-MIDWAY CLOUDY    71  65  81 S12       29.94F
MOLINE         CLOUDY    70  66  87 SE9       29.79F
ROCKFORD       CLOUDY    69  65  86 S7        29.90F FOG
PEORIA         CLOUDY    72  67  84 SE13      29.85F
$$

NOTE: "FAIR" INDICATES FEW OR NO CLOUDS BELOW 12,000 FEET WITH NO
SIGNIFICANT WEATHER AND/OR OBSTRUCTIONS TO VISIBILITY. WIND
SPEEDS ARE IN MILES-PER-HOUR.



USA.gov is the U.S. government's official web portal to all federal, state and local government web resources and services.